Wind_Speed
32 32 25 25 25 26 27 25 23 17 23 25 22 19 21 14 16 11 15 14 21 21 21 24 26 26 29 30 28 22 21 21 15 17 19 23 20 21 18 11 11 19 12 5
30 26 22 23 26 29 29 26 25 21 27 27 24 19 19 16 16 9 14 15 20 21 20 22 24 24 26 27 27 20 19 20 14 14 19 22 18 16 20 19 25 28 26 29
27 18 23 29 31 31 27 27 27 23 27 28 26 24 19 21 15 8 15 13 16 21 19 20 23 21 23 25 25 18 15 19 17 16 17 22 24 26 21 24 23 31 28 33
31 25 28 32 29 29 26 29 29 25 28 30 24 23 19 21 20 13 12 15 15 19 19 17 21 19 20 22 22 17 12 16 17 17 17 21 22 29 23 23 33 35 28 33
25 24 28 31 25 26 26 27 27 22 29 31 27 26 19 19 18 15 12 13 14 16 18 15 18 16 17 19 19 16 11 14 16 18 20 24 19 32 25 17 20 26 33 26
25 27 33 28 29 30 27 21 22 26 31 33 27 28 27 17 13 12 12 11 11 14 14 12 15 12 14 16 16 15 11 10 14 16 24 23 25 24 25 26 24 18 15 21
23 26 32 30 30 29 30 22 26 28 29 28 21 30 28 7 8 7 9 10 10 12 9 9 12 9 11 12 14 15 12 8 9 14 18 20 20 20 20 23 26 20 21 19
26 24 30 26 31 29 28 23 24 27 22 22 20 29 17 8 9 8 9 8 9 8 7 7 9 6 8 9 10 15 16 11 11 11 15 19 19 18 17 20 23 27 25 23
29 22 19 27 28 30 27 28 18 22 21 25 23 25 11 7 7 4 4 4 8 5 7 5 7 3 5 7 8 11 17 16 11 11 11 13 14 15 16 20 19 18 20 31
30 28 20 27 30 32 30 24 21 21 25 22 22 24 12 8 9 11 8 4 5 3 5 4 4 1 4 6 7 11 12 11 16 9 11 10 12 14 13 15 16 14 20 24
30 29 23 30 35 33 32 32 29 25 28 27 26 16 16 17 11 9 7 5 3 2 3 3 1 3 4 4 6 9 13 14 14 16 13 13 14 14 14 12 14 15 16 18
27 19 25 34 33 34 35 35 32 29 27 23 25 10 20 17 11 6 4 6 6 4 2 1 2 5 5 2 5 7 12 15 17 19 18 17 15 15 16 18 18 17 18 19
28 28 26 34 37 38 38 34 36 32 32 34 28 9 18 14 11 8 9 7 6 6 4 3 5 5 6 4 5 6 11 13 18 19 21 20 21 21 20 20 19 19 19 19
34 35 36 32 30 32 34 36 35 34 35 32 26 27 17 13 11 18 16 8 8 7 6 4 6 6 7 6 7 7 9 12 15 19 19 18 17 17 16 15 15 16 17 18
39 43 38 32 27 25 36 35 34 36 36 39 25 21 19 25 16 13 9 19 13 10 9 6 7 7 9 8 8 9 9 10 13 16 18 18 18 18 16 16 17 17 18 18
48 46 37 35 31 27 31 38 38 33 30 38 36 26 27 26 22 18 13 13 16 14 11 10 8 7 8 9 8 9 9 9 9 13 14 15 16 17 18 18 19 20 21 21
51 51 44 43 39 38 38 42 40 33 33 35 31 19 33 28 18 20 12 17 14 16 12 12 11 10 8 10 10 9 8 8 8 9 10 12 12 13 14 15 17 18 18 18
55 54 49 54 48 52 40 35 33 31 29 33 21 20 26 20 22 22 20 23 22 17 15 13 13 12 9 10 11 10 8 6 7 10 9 10 10 9 10 10 11 11 10 10
66 62 58 59 55 49 46 35 35 30 26 30 32 29 33 27 26 21 15 28 23 23 17 16 15 16 14 12 13 13 10 7 7 7 6 8 8 8 8 8 8 7 7 6
70 68 64 51 60 45 46 36 28 29 37 34 33 26 31 30 28 16 20 23 21 24 14 19 18 17 17 15 15 15 13 8 8 8 7 6 6 5 4 4 3 2 4 5
77 73 69 65 55 56 53 49 36 37 21 22 25 29 29 27 20 26 20 24 23 22 17 18 21 19 20 20 19 18 17 13 13 10 9 8 6 5 3 3 3 2 3 5
79 78 70 65 58 53 53 51 35 26 23 30 36 33 36 24 22 27 24 26 30 28 23 20 23 23 19 19 22 21 18 21 19 17 14 12 12 10 9 9 8 7 7 7
80 80 74 65 65 52 53 48 42 39 33 32 31 33 38 33 38 31 31 23 20 26 25 23 21 23 21 18 18 21 26 23 22 20 18 18 17 15 15 14 14 13 12 12
79 72 71 70 66 66 57 43 42 44 33 30 31 26 34 33 32 31 33 31 26 25 17 19 25 19 19 21 18 18 23 24 24 22 20 21 21 21 20 20 21 19 16 16
75 70 73 68 57 49 43 47 46 37 36 40 30 28 22 30 35 31 30 32 30 27 30 23 22 21 19 21 22 21 19 21 22 22 21 21 22 23 23 24 24 22 22 19
76 66 65 67 61 55 52 42 38 36 30 36 31 35 30 25 33 31 31 33 33 33 27 31 32 37 29 23 18 23 23 21 22 22 22 22 24 25 25 26 27 25 26 23
Wind_Direction
247 247 245 247 240 242 242 255 268 280 282 286 285 288 296 315 317 305 311 324 330 342 341 342 343 345 355 355 2 17 15 10 18 25 33 39 52 60 61 65 41 77 77 113
252 256 248 238 236 238 241 253 265 268 275 279 280 285 295 316 314 295 303 323 333 348 341 343 344 344 353 353 5 22 18 16 20 37 47 49 55 64 56 89 95 84 81 95
251 254 237 234 233 241 246 257 265 264 262 270 277 285 297 312 312 334 317 319 338 352 341 344 342 343 351 352 7 27 22 21 31 50 57 67 73 78 75 97 95 97 93 97
249 236 237 237 240 246 247 259 260 259 265 269 267 283 294 302 318 324 307 311 338 348 339 344 340 342 351 349 10 30 34 28 35 61 72 76 81 75 82 105 108 102 99 103
248 241 239 240 243 247 246 262 261 245 257 265 270 284 299 303 296 285 290 301 336 340 340 340 339 340 354 350 15 33 47 36 40 66 73 83 69 98 101 86 117 96 95 108
244 229 234 237 232 238 241 243 238 242 251 262 269 280 283 306 295 281 290 307 333 341 339 337 337 341 358 355 21 40 54 45 54 65 84 84 94 88 90 97 110 106 82 90
258 235 239 235 236 237 238 231 235 249 255 267 274 280 282 270 277 283 289 312 339 344 341 332 336 344 4 6 40 50 56 69 64 77 92 98 97 99 91 94 99 94 98 104
252 230 237 248 246 243 241 243 250 257 273 274 249 257 273 254 262 293 310 319 341 349 335 326 334 350 11 19 48 59 58 71 74 87 96 99 102 97 96 102 104 103 108 110
254 251 231 232 239 242 242 246 255 266 265 261 254 254 238 252 285 297 249 329 334 341 317 316 329 7 27 35 49 65 71 64 84 83 107 112 104 100 104 110 111 105 112 111
248 249 225 231 231 232 235 246 253 254 261 271 269 260 241 247 241 264 280 316 312 314 302 308 336 81 60 48 66 76 80 72 72 87 94 115 115 111 113 117 115 107 107 106
242 245 231 224 227 224 229 238 240 245 254 256 263 255 241 247 269 286 246 258 249 238 276 301 331 140 96 63 78 85 85 81 86 78 117 111 121 118 123 125 122 118 109 112
230 240 236 222 225 227 226 237 244 246 250 253 265 248 238 250 263 307 257 210 195 168 227 236 142 138 119 97 88 95 95 91 87 84 108 96 113 121 118 120 118 113 116 117
213 225 231 217 225 224 224 232 237 245 242 256 262 239 250 245 249 270 266 235 191 174 190 186 146 147 135 127 106 99 103 102 100 98 99 106 102 105 109 116 114 113 114 124
209 219 235 238 238 234 233 236 237 241 248 251 259 257 251 244 249 238 219 229 233 187 181 176 149 153 148 135 119 102 101 107 110 110 109 113 114 117 121 123 126 126 121 119
218 227 229 230 235 240 235 241 245 244 251 255 262 262 224 233 230 241 186 236 216 205 185 187 172 161 163 154 135 115 104 103 119 116 113 116 118 118 119 119 121 121 120 120
217 228 228 228 229 231 229 230 237 238 242 244 247 241 233 219 223 232 238 224 215 208 203 191 192 172 174 176 156 123 108 108 120 124 120 117 115 115 118 121 122 120 120 119
221 226 226 228 228 239 234 223 232 232 230 241 254 256 228 232 219 235 228 216 223 213 212 194 194 193 189 186 182 150 124 110 112 125 127 122 118 118 117 124 127 127 123 119
220 225 227 230 233 235 234 229 232 237 235 239 231 223 227 223 235 227 223 197 199 194 213 202 200 203 205 193 189 171 152 125 112 112 123 131 129 129 130 129 131 133 133 129
219 224 229 235 233 236 238 231 234 236 240 239 239 243 223 231 225 233 233 214 205 202 205 212 208 209 205 198 199 194 179 154 139 127 129 131 132 132 130 135 144 158 172 181
217 224 226 229 233 226 239 236 241 234 235 228 236 229 215 221 228 214 221 211 222 207 218 203 213 213 211 210 211 207 210 205 171 158 149 139 137 137 137 137 143 188 219 225
213 222 227 223 229 236 246 241 237 232 225 237 231 224 235 249 243 208 194 206 203 209 208 216 212 215 213 213 216 220 217 212 217 200 192 191 196 200 207 218 214 227 252 255
215 219 223 223 230 234 239 241 231 243 255 241 244 234 232 237 228 218 215 225 233 223 209 213 214 210 215 219 218 220 222 220 217 226 227 231 238 241 242 247 250 261 275 266
218 219 224 227 227 236 238 245 251 255 255 252 241 239 239 248 240 236 232 231 239 210 209 208 215 221 219 218 221 218 225 229 233 231 232 238 242 244 247 252 258 263 270 271
216 218 225 229 229 234 244 245 251 248 249 236 232 236 235 240 232 239 229 226 233 236 218 213 220 223 221 228 221 219 224 225 230 234 237 236 239 244 248 254 260 265 269 268
214 216 222 227 226 225 241 245 242 246 238 233 241 236 249 239 238 234 220 233 227 232 239 229 239 237 238 228 224 231 228 228 227 232 235 242 246 247 250 252 256 256 255 257
216 217 216 223 233 242 240 252 247 245 247 237 246 242 229 234 238 231 225 222 231 227 241 235 232 238 224 221 217 233 237 231 226 227 236 241 246 249 251 249 250 249 252 256
Height
5814 5814 5818 5822 5822 5822 5821 5821 5820 5821 5819 5818 5817 5814 5811 5810 5809 5809 5806 5803 5799 5794 5789 5785 5779 5774 5766 5762 5754 5746 5739 5732 5727 5721 5716 5710 5706 5703 5702 5700 5697 5694 5693 5691
5809 5811 5816 5816 5815 5815 5816 5817 5818 5819 5814 5812 5811 5811 5808 5806 5807 5806 5803 5800 5797 5792 5787 5784 5779 5774 5767 5763 5756 5748 5742 5736 5731 5726 5721 5715 5712 5709 5707 5705 5704 5702 5700 5696
5803 5812 5809 5808 5808 5810 5813 5813 5813 5812 5810 5808 5808 5807 5804 5803 5804 5803 5802 5799 5795 5790 5787 5783 5779 5774 5768 5765 5758 5751 5746 5740 5735 5730 5725 5721 5718 5717 5716 5714 5713 5714 5711 5712
5799 5803 5801 5802 5805 5805 5808 5806 5806 5806 5805 5804 5804 5802 5804 5800 5800 5800 5800 5797 5792 5788 5785 5782 5778 5775 5770 5767 5760 5753 5750 5744 5740 5735 5731 5728 5727 5725 5721 5721 5723 5722 5720 5720
5796 5796 5796 5796 5802 5800 5803 5800 5801 5799 5799 5798 5799 5799 5800 5798 5798 5797 5797 5795 5790 5787 5784 5781 5778 5775 5771 5768 5762 5755 5753 5749 5746 5740 5735 5733 5733 5734 5734 5731 5731 5730 5730 5730
5780 5787 5786 5791 5793 5793 5795 5794 5794 5794 5795 5794 5797 5795 5794 5796 5794 5795 5794 5792 5788 5785 5782 5780 5779 5776 5773 5770 5764 5758 5756 5753 5751 5747 5741 5741 5740 5740 5740 5740 5739 5738 5736 5739
5776 5779 5781 5783 5786 5788 5788 5789 5789 5789 5791 5792 5796 5790 5790 5793 5793 5793 5792 5790 5786 5783 5782 5780 5778 5777 5774 5772 5767 5761 5758 5756 5754 5752 5749 5747 5748 5748 5747 5747 5746 5746 5746 5746
5769 5773 5774 5780 5780 5784 5783 5784 5785 5785 5787 5788 5787 5783 5789 5790 5791 5790 5789 5787 5784 5782 5781 5781 5779 5777 5776 5773 5770 5766 5761 5759 5757 5756 5755 5754 5754 5755 5754 5754 5753 5752 5753 5753
5764 5769 5772 5771 5775 5777 5779 5778 5784 5782 5783 5781 5783 5783 5787 5788 5789 5788 5786 5784 5782 5781 5780 5780 5779 5777 5777 5775 5772 5769 5766 5762 5760 5759 5759 5758 5758 5759 5759 5760 5760 5761 5761 5761
5758 5760 5765 5767 5768 5769 5770 5776 5777 5778 5777 5777 5778 5780 5785 5787 5786 5784 5783 5782 5782 5780 5780 5780 5779 5778 5777 5777 5775 5771 5769 5767 5764 5762 5761 5761 5762 5763 5763 5764 5766 5767 5767 5767
5749 5752 5758 5759 5758 5762 5766 5767 5770 5773 5774 5773 5773 5778 5782 5782 5781 5782 5781 5781 5780 5780 5780 5780 5779 5779 5778 5779 5777 5774 5772 5770 5768 5766 5765 5765 5766 5767 5768 5768 5769 5771 5771 5773
5742 5745 5747 5750 5754 5756 5759 5762 5765 5766 5769 5771 5771 5777 5776 5776 5777 5777 5780 5781 5781 5780 5780 5780 5779 5780 5779 5780 5779 5777 5775 5773 5771 5769 5769 5769 5770 5770 5772 5773 5774 5774 5775 5777
5734 5735 5739 5742 5746 5746 5750 5755 5758 5761 5764 5764 5767 5774 5775 5775 5775 5777 5778 5781 5780 5780 5780 5780 5779 5781 5781 5782 5781 5780 5779 5778 5776 5774 5775 5775 5775 5776 5777 5778 5778 5780 5780 5782
5723 5726 5728 5733 5742 5745 5746 5749 5752 5755 5756 5761 5763 5767 5773 5773 5774 5773 5775 5780 5780 5780 5781 5780 5779 5781 5782 5783 5783 5783 5781 5781 5780 5779 5780 5781 5781 5782 5783 5783 5784 5785 5786 5788
5714 5716 5721 5727 5733 5739 5740 5744 5747 5749 5754 5755 5760 5760 5765 5767 5769 5769 5769 5776 5778 5780 5780 5781 5780 5781 5782 5783 5785 5785 5785 5784 5784 5784 5784 5785 5786 5787 5788 5789 5790 5791 5792 5793
5704 5708 5715 5718 5724 5729 5730 5735 5739 5743 5746 5747 5752 5756 5761 5760 5765 5766 5767 5771 5776 5777 5779 5780 5781 5781 5783 5784 5785 5786 5787 5787 5788 5788 5788 5789 5790 5791 5792 5793 5794 5796 5797 5799
5695 5700 5706 5708 5715 5723 5720 5723 5730 5736 5740 5743 5745 5752 5752 5756 5760 5765 5765 5767 5775 5777 5777 5778 5780 5781 5782 5784 5785 5786 5788 5789 5790 5789 5791 5792 5793 5794 5795 5796 5798 5799 5800 5801
5686 5691 5697 5698 5706 5706 5712 5719 5727 5731 5735 5736 5742 5746 5750 5752 5755 5760 5760 5762 5768 5772 5775 5776 5778 5780 5781 5782 5785 5787 5787 5789 5790 5791 5792 5793 5794 5796 5797 5798 5799 5801 5802 5803
5675 5682 5688 5692 5694 5699 5703 5712 5718 5725 5732 5735 5738 5741 5744 5746 5747 5754 5757 5760 5763 5768 5769 5773 5775 5777 5779 5781 5784 5786 5787 5788 5790 5791 5792 5793 5795 5796 5797 5798 5799 5801 5802 5803
5663 5669 5679 5686 5686 5689 5694 5707 5715 5718 5718 5728 5731 5734 5736 5739 5743 5752 5751 5756 5759 5763 5766 5767 5772 5774 5777 5779 5781 5785 5787 5788 5789 5790 5791 5793 5794 5796 5797 5798 5799 5800 5801 5802
5650 5654 5662 5674 5677 5681 5686 5699 5708 5710 5723 5721 5723 5728 5728 5733 5740 5745 5745 5751 5754 5757 5761 5763 5769 5771 5772 5775 5778 5782 5784 5786 5787 5788 5790 5791 5793 5795 5796 5797 5798 5798 5799 5800
5637 5646 5654 5663 5668 5673 5679 5686 5698 5712 5715 5714 5715 5720 5722 5726 5732 5738 5744 5749 5752 5753 5754 5758 5764 5766 5769 5771 5775 5777 5781 5781 5783 5786 5788 5789 5791 5793 5794 5795 5796 5797 5797 5798
5625 5636 5650 5659 5666 5668 5673 5684 5695 5703 5705 5706 5709 5712 5715 5721 5727 5734 5738 5745 5748 5748 5751 5753 5758 5762 5766 5768 5770 5773 5775 5778 5780 5782 5785 5786 5787 5789 5791 5792 5793 5794 5794 5794
5618 5629 5637 5647 5657 5663 5669 5680 5687 5695 5699 5699 5702 5705 5709 5715 5721 5726 5729 5737 5744 5745 5747 5751 5753 5756 5761 5765 5767 5768 5771 5773 5775 5778 5780 5781 5783 5785 5787 5788 5788 5789 5791 5790
5610 5623 5629 5638 5646 5655 5662 5670 5679 5685 5689 5694 5697 5699 5704 5709 5713 5716 5722 5727 5734 5738 5743 5744 5747 5751 5756 5759 5762 5763 5766 5769 5771 5773 5775 5776 5778 5780 5781 5782 5783 5784 5785 5786
5598 5610 5620 5632 5643 5652 5660 5665 5671 5676 5681 5684 5690 5693 5697 5701 5704 5709 5714 5718 5727 5734 5736 5738 5740 5743 5746 5754 5756 5758 5761 5764 5765 5768 5770 5772 5773 5773 5774 5776 5776 5778 5779 5781